Resolute,

1:35 AM CDT on August 17, 2017 (GMT -0500)
Resolute

Weather History for CYRB - February, 2014

Change the Weather History Date:

Sunday, February 16, 2014

  Actual Average Record
Temperature  
Mean Temperature -32 °F -  
Max Temperature -27 °F -19 °F -7 °F (2011)
Min Temperature -36 °F -32 °F -45 °F (2004)
Degree Days  
Heating Degree Days 96    
Moisture  
Dew Point -40 °F    
Average Humidity 63    
Maximum Humidity 75    
Minimum Humidity 46    
Precipitation  
Precipitation 0.00 in 0.01 in - ()
Sea Level Pressure  
Sea Level Pressure 29.95 in    
Wind  
Wind Speed 2 mph ()    
Max Wind Speed 9 mph    
Max Gust Speed -    
Visibility 14.2 miles    
Events Snow    
Averages and records for this station are not official NWS values.
T = Trace of Precipitation, MM = Missing Value Source: Averaged Metar Reports

Daily Weather History Graph

Daily Weather History Graph

Search for Another Location

Airport or City:

Trip Planner

Search our weather history database for the weather conditions in past years. The results will help you decide how hot, cold, wet, or windy it might be!

Date:

Astronomy

Feb. 16, 2014 Rise Set
Actual Time 9:43 AM CST 3:26 PM CST
Civil Twilight 8:05 AM CST 5:04 PM CST
Nautical Twilight 6:31 AM CST 6:39 PM CST
Astronomical Twilight 4:58 AM CST 8:12 PM CST
Moon 7:50 PM CST (2/16) 8:08 AM CST (2/16)
Length of Visible Light 8h 59m
Length of Day
5h 43m
Full, 97% of the Moon is Illuminated
Feb 16
Full
Feb 22
Last Quarter
Mar 1
New
Mar 8
First Quarter
Mar 16
Full

Hourly Weather History & Observations

Time (CST) Temp. Windchill Dew Point Humidity Pressure Visibility Wind Dir Wind Speed Gust Speed Precip Events Conditions
12:00 AM -35 °F - -43 °F 47% 29.92 in 15 mi Calm Calm - - Snow Light Snow
12:00 AM -34.6 °F - -41.8 °F 68% 29.92 in 15.0 mi Calm Calm - N/A Snow Light Snow
1:00 AM -34.6 °F - -41.8 °F 68% 29.93 in 15.0 mi Calm Calm - N/A   Partly Cloudy
2:00 AM -34.6 °F - -41.8 °F 68% 29.92 in 15.0 mi Calm Calm - N/A   Partly Cloudy
3:00 AM -34.6 °F - -41.8 °F 68% 29.92 in 15.0 mi Calm Calm - N/A   Partly Cloudy
4:00 AM -34.6 °F - -41.8 °F 68% 29.91 in 15.0 mi Calm Calm - N/A   Partly Cloudy
5:00 AM -36.4 °F - -43.6 °F 67% 29.91 in 8.0 mi Calm Calm - N/A   Clear
6:00 AM -31 °F - -39 °F 47% 29.91 in 10 mi Calm Calm - - Snow Snow
6:00 AM -31.0 °F - -38.2 °F 68% 29.91 in 10.0 mi Calm Calm - N/A   Clear
7:00 AM -32.8 °F - -40.0 °F 68% 29.91 in 15.0 mi Calm Calm - N/A   Clear
8:00 AM -36.4 °F - -41.8 °F 75% 29.92 in 15.0 mi Calm Calm - N/A   Clear
9:00 AM -32.8 °F - -40.0 °F 68% 29.92 in 15.0 mi Calm Calm - N/A   Partly Cloudy
10:00 AM -31.0 °F - -38.2 °F 68% 29.92 in 15.0 mi Calm Calm - N/A   Partly Cloudy
11:00 AM -31.0 °F - -38.2 °F 68% 29.93 in 15.0 mi Calm Calm - N/A   Clear
12:00 PM -32 °F - -40 °F 46% 29.94 in 15 mi Calm Calm - - Snow Snow
12:00 PM -32.8 °F - -40.0 °F 68% 29.94 in 15.0 mi Calm Calm - N/A   Clear
1:00 PM -31.0 °F -51.9 °F -38.2 °F 68% 29.94 in 12.0 mi North 8.1 mph - N/A   Clear
2:00 PM -29.2 °F -46.2 °F -38.2 °F 62% 29.96 in 12.0 mi North 5.8 mph - N/A   Clear
3:00 PM -29.2 °F -44.0 °F -38.2 °F 62% 29.97 in 15.0 mi NW 4.6 mph - N/A   Partly Cloudy
4:00 PM -31.0 °F -50.3 °F -38.2 °F 68% 29.99 in 15.0 mi North 6.9 mph - N/A   Partly Cloudy
5:00 PM -29.2 °F -46.2 °F -38.2 °F 62% 29.99 in 15.0 mi North 5.8 mph - N/A   Partly Cloudy
6:00 PM -30 °F - -38 °F 46% 29.99 in 15 mi North 8.1 mph - - Snow Snow
6:00 PM -29.2 °F -49.7 °F -38.2 °F 62% 29.99 in 15.0 mi North 8.1 mph - N/A   Partly Cloudy
7:00 PM -29.2 °F -48.1 °F -38.2 °F 62% 30.00 in 15.0 mi North 6.9 mph - N/A   Clear
7:55 PM - - - N/A% - 15.0 mi NW 5.8 mph - N/A   Clear
8:00 PM -34.6 °F -52.6 °F -41.8 °F 68% 30.01 in 15.0 mi NW 5.8 mph - N/A   Clear
9:00 PM -29.2 °F -51.2 °F -38.2 °F 62% 30.01 in 15.0 mi NNE 9.2 mph - N/A   Clear
10:00 PM -27.4 °F -49.0 °F -36.4 °F 62% 30.01 in 15.0 mi NNE 9.2 mph - N/A   Clear
11:00 PM -27.4 °F -49.0 °F -36.4 °F 62% 30.02 in 15.0 mi NNE 9.2 mph - N/A   Clear